Wind_Speed
27 25 22 26 31 34 38 41 44 46 43 42 48 52 53 52 42 37 42 44 43 41 38 35 29 24 26 26 24 25 25 26 29 30 32 32 31 32 35 40 39 34 32 31 30 32 32 31 32 30 28 28 28 29 30 30 32 32 33 33 31 33 35 36 35 35 33 31 29 28 28 30 31 32 33 33 33 33 33 32 31 30 28 27 26 25 24
27 26 23 25 31 34 37 40 42 45 46 46 46 48 51 55 53 50 48 47 48 49 46 44 39 30 24 22 24 26 24 23 24 26 29 29 26 24 27 33 36 35 33 32 32 33 34 33 33 31 29 28 28 29 30 31 32 32 33 33 31 32 34 34 34 35 35 33 31 30 30 30 31 32 33 33 33 33 33 32 31 30 29 28 28 27 26
23 21 19 21 27 31 35 38 39 42 46 49 49 48 48 51 52 52 50 48 49 48 45 44 40 35 27 23 26 27 22 20 19 18 20 23 24 22 22 26 30 32 33 31 31 33 35 35 34 31 30 30 29 28 29 30 31 32 33 33 31 32 32 32 33 35 36 35 33 31 31 30 31 32 33 34 34 33 33 32 32 31 30 30 30 29 28
19 13 10 14 24 30 34 39 42 42 44 47 49 48 47 48 49 51 51 52 51 45 42 42 39 35 35 32 31 31 25 19 18 16 15 19 24 26 26 28 31 32 32 30 29 31 34 36 36 32 30 32 32 31 30 30 30 31 32 32 32 32 31 31 33 35 36 37 36 33 32 32 31 32 33 34 34 34 33 33 32 32 32 32 32 30 29
17 10 7 13 15 17 28 46 52 47 44 44 44 44 46 47 48 50 52 54 52 42 38 42 38 34 39 40 37 38 33 25 23 22 18 18 21 28 31 32 32 31 31 30 29 30 32 35 36 32 30 32 34 32 31 30 31 32 32 32 32 32 32 32 33 34 35 37 37 35 33 33 32 33 34 34 34 33 33 33 34 34 34 34 33 31 30
15 11 13 17 11 10 33 53 54 49 46 44 42 41 42 44 46 50 51 51 49 42 37 38 34 29 33 39 41 44 41 34 32 29 24 19 19 25 30 32 33 32 31 31 30 30 31 33 33 30 30 32 33 32 32 32 32 33 32 32 32 33 34 34 35 35 35 36 38 37 35 34 33 34 34 34 33 33 33 34 35 35 36 36 35 33 31
18 18 17 12 4 16 39 46 42 45 46 42 42 41 40 41 43 48 50 47 46 45 39 34 31 29 29 33 41 46 44 40 37 33 28 23 19 20 23 25 27 29 31 32 32 31 32 34 33 31 30 32 34 33 33 33 32 32 32 31 31 32 34 34 35 36 36 36 37 38 37 36 35 35 35 34 34 34 35 36 36 37 38 37 36 34 32
17 15 12 7 5 14 27 30 30 34 34 35 41 44 43 43 42 44 48 48 47 47 41 35 34 32 27 28 35 42 43 42 39 34 30 25 19 20 21 19 20 22 26 29 31 32 33 33 33 32 32 34 35 34 33 32 31 30 29 29 30 30 32 33 34 36 36 37 37 39 39 39 37 36 36 36 36 36 37 38 38 39 39 39 37 35 32
14 14 15 14 15 13 15 18 20 23 25 30 36 40 43 45 42 41 43 44 45 46 43 39 37 32 26 25 29 33 36 37 35 32 29 24 20 22 23 22 21 20 21 24 26 29 31 31 31 32 34 36 35 33 32 31 30 30 29 30 31 31 32 32 32 33 35 37 38 39 41 41 39 38 37 37 38 39 40 40 41 41 41 40 38 36 34
15 15 13 11 10 8 10 15 18 22 27 32 33 34 40 42 40 38 36 33 35 38 41 42 40 33 27 25 27 30 30 28 27 27 25 23 24 25 25 24 21 19 19 22 23 24 27 30 31 33 36 36 34 32 32 32 31 32 32 33 33 33 33 32 30 29 31 35 38 39 40 41 41 40 39 38 39 40 41 42 42 42 41 40 38 37 37
19 12 7 4 5 7 8 13 20 23 26 33 33 30 34 42 43 40 36 30 27 28 33 40 42 37 29 25 26 28 28 25 24 24 24 25 26 27 27 26 23 20 19 22 23 23 24 26 29 33 36 35 32 31 31 32 32 32 32 32 32 31 31 30 29 28 28 31 35 38 39 40 41 42 41 40 40 41 42 43 43 43 41 40 40 40 39
25 16 8 7 10 12 10 8 16 20 25 33 29 18 23 38 43 39 35 29 23 21 24 30 36 36 32 28 25 25 26 24 22 22 23 26 28 29 30 29 27 24 22 22 23 23 24 24 25 30 34 34 32 31 31 32 33 33 33 33 31 30 29 29 27 26 25 25 28 34 38 39 40 43 43 42 42 42 43 43 43 42 42 42 42 41 39
28 21 12 12 16 17 13 9 9 15 25 32 27 17 20 31 33 30 27 22 19 19 18 19 22 24 25 25 25 24 25 25 24 22 23 24 25 28 29 30 30 29 27 26 26 24 25 26 27 30 33 34 33 33 33 34 34 34 33 32 31 30 29 27 26 25 22 20 21 25 32 38 40 42 44 45 45 44 44 45 44 43 42 41 40 40 39
24 23 17 15 17 15 10 7 6 14 23 26 23 22 24 25 26 28 26 22 20 20 19 18 17 17 18 18 18 19 20 20 20 21 23 23 24 25 28 30 31 31 31 31 31 31 30 30 32 34 37 38 39 38 38 37 36 34 33 32 30 30 28 27 27 27 25 24 23 22 24 31 38 42 44 46 46 46 46 46 46 45 43 41 40 40 40
19 18 16 11 12 12 9 4 5 15 21 22 24 28 26 22 24 27 26 23 22 21 20 19 18 16 15 14 14 15 15 14 14 15 16 18 20 22 25 28 30 30 30 30 30 31 32 32 32 34 36 39 41 42 42 41 39 40 40 37 34 32 32 31 30 29 29 29 28 27 25 26 33 41 45 46 47 49 49 49 49 48 45 43 42 43 42
23 19 20 17 14 13 9 5 2 12 20 24 29 31 28 24 23 24 22 21 21 20 18 17 16 15 14 14 14 14 14 14 14 14 14 14 15 16 18 22 25 27 29 29 29 29 29 30 31 31 32 33 34 36 38 38 38 39 40 40 38 37 36 35 33 34 34 33 32 32 31 30 31 38 44 45 46 49 51 51 51 50 47 45 44 43 41
33 30 31 30 23 14 8 8 1 12 24 28 30 29 27 26 25 22 20 20 21 20 19 17 16 15 13 13 13 13 13 14 14 15 17 17 17 17 17 18 19 22 25 28 30 30 30 29 30 30 31 30 30 31 33 35 37 37 36 38 39 39 38 38 38 37 36 36 37 38 38 38 36 36 41 45 47 49 51 52 52 51 49 47 44 41 39
35 35 35 36 32 19 7 9 3 15 27 27 28 28 26 27 27 23 22 23 22 21 20 17 15 14 13 12 13 13 13 13 13 14 16 18 19 20 21 21 21 21 22 24 26 28 30 31 31 31 30 29 29 30 31 33 36 38 39 40 41 41 40 41 42 42 40 40 41 42 45 47 46 42 42 45 48 50 51 52 52 51 48 44 41 41 41
31 33 36 40 40 30 15 10 5 14 23 22 24 27 25 26 28 24 21 22 20 18 16 13 10 10 9 9 10 11 13 14 15 16 17 18 20 21 22 24 25 26 26 26 26 26 27 29 30 30 29 29 29 29 30 32 34 36 39 41 42 43 44 44 44 46 47 46 45 45 47 51 52 51 48 45 48 51 53 53 53 50 46 41 39 39 38
24 27 32 39 44 43 32 17 10 5 14 14 16 19 18 19 21 19 17 15 13 11 10 7 6 5 4 5 7 9 11 13 15 17 19 20 21 22 23 24 25 27 28 29 30 30 30 30 29 30 30 30 30 29 30 32 34 36 38 39 41 43 45 47 48 49 51 52 52 51 51 51 54 56 54 49 48 51 52 53 53 48 43 40 37 35 32
22 23 25 30 37 41 38 25 12 5 5 9 9 8 8 8 9 12 14 11 9 7 5 4 4 3 3 4 5 6 7 9 11 14 16 18 20 22 23 24 25 26 28 29 31 33 33 33 33 34 35 35 34 34 34 33 35 37 38 39 40 41 42 44 47 49 53 55 55 56 55 53 54 57 57 54 52 52 51 50 48 44 40 38 36 33 31
22 24 24 26 29 32 31 27 16 9 6 6 8 4 2 2 2 7 10 9 7 6 4 3 3 3 4 5 6 7 7 8 9 11 14 16 18 19 21 22 24 25 26 28 30 32 33 34 35 36 37 38 39 40 40 39 39 39 40 41 42 44 45 47 47 48 50 52 55 58 59 57 55 55 58 59 58 56 55 52 47 44 42 39 35 32 30
20 22 23 25 26 24 22 23 20 10 9 5 6 3 2 2 6 8 7 6 5 3 1 0 2 4 6 7 8 9 10 11 12 13 15 17 18 19 19 20 21 22 23 25 27 28 30 32 34 35 36 37 39 41 42 42 43 44 45 45 46 47 48 49 50 51 51 52 54 57 60 60 57 55 56 60 62 59 54 50 48 46 42 38 34 30 26
22 19 22 24 22 20 18 19 23 17 9 9 7 9 9 6 5 8 8 7 6 4 3 3 4 5 7 8 10 11 13 16 17 18 19 20 20 20 19 19 19 20 22 23 24 26 27 29 31 32 32 32 34 38 40 42 44 45 46 47 48 48 48 49 51 54 56 57 58 60 62 63 63 61 56 55 59 60 51 42 42 44 42 38 36 31 26
24 21 24 24 22 22 22 22 23 22 14 11 10 10 9 6 5 7 7 7 6 5 5 6 7 8 9 10 12 15 17 18 18 18 18 18 18 18 17 17 16 17 18 20 22 24 25 25 26 26 26 27 30 33 36 38 39 39 39 40 42 43 45 48 51 54 57 59 60 62 63 65 67 68 63 57 57 60 55 45 38 39 40 38 36 32 28
23 23 24 24 22 23 25 26 27 25 17 12 11 9 6 4 5 7 6 7 7 8 8 9 11 12 14 15 16 17 17 15 13 12 12 13 14 14 14 13 13 14 15 17 18 19 20 20 20 20 22 24 27 29 30 31 31 32 33 35 35 37 41 44 48 53 57 59 60 61 65 71 74 70 62 59 59 60 62 60 53 45 41 37 34 31 29
22 24 25 25 25 24 25 27 28 28 23 18 15 11 6 3 3 4 5 6 8 10 12 14 15 16 17 17 18 16 12 10 9 9 10 11 12 14 14 15 15 15 15 15 15 16 16 16 17 17 18 21 22 24 25 24 23 24 25 24 25 29 34 36 38 43 49 53 54 53 53 66 80 77 66 60 55 48 48 54 54 47 40 34 32 29 28
21 23 23 23 23 24 24 25 26 26 24 22 18 14 10 8 7 5 5 6 8 10 13 16 17 17 17 17 16 13 10 9 9 11 12 13 13 14 15 15 15 15 15 15 15 15 15 15 15 15 17 18 17 15 14 13 14 15 15 14 14 18 18 16 19 28 36 38 36 29 21 31 53 61 59 55 49 41 38 40 41 39 34 29 28 30 32
19 22 22 21 20 20 21 23 23 22 22 21 20 18 15 13 12 10 10 10 11 11 13 16 17 17 16 15 13 10 9 9 9 10 11 12 12 12 11 11 12 12 13 14 14 15 15 14 12 12 13 11 6 5 5 4 5 6 7 9 10 8 4 4 2 7 14 12 5 3 2 5 16 26 32 35 34 32 32 31 30 30 30 28 30 35 37
15 18 20 20 20 19 19 21 22 23 23 23 23 21 18 17 15 13 11 11 11 11 12 13 15 15 14 11 7 6 7 8 8 8 9 9 9 9 8 8 8 9 10 11 11 11 10 8 7 7 6 3 4 6 5 3 5 6 4 3 5 5 3 4 7 7 5 3 8 11 10 9 12 17 19 20 22 24 27 27 27 30 32 32 34 36 34
13 15 17 18 20 20 19 20 22 24 24 23 22 20 19 18 16 14 11 9 9 9 9 10 10 11 10 6 2 2 3 5 5 5 5 5 6 6 5 5 5 5 6 7 7 8 6 3 2 2 1 2 4 4 6 8 8 7 6 3 2 4 8 11 10 8 7 7 7 7 10 12 14 15 16 19 21 23 26 27 29 31 31 31 31 30 28
12 15 16 16 16 16 16 17 20 22 23 22 20 19 18 16 16 14 12 10 10 10 9 9 9 8 6 4 2 2 2 3 4 5 5 5 6 5 4 3 3 3 4 5 5 6 6 4 3 3 5 6 6 7 9 9 9 8 7 6 6 7 10 11 11 9 10 11 12 12 13 15 16 17 18 20 21 22 24 25 26 26 25 25 25 25 24
13 14 15 14 14 14 15 18 20 21 22 21 20 19 17 16 14 14 13 12 12 11 11 10 9 8 6 5 5 6 6 7 8 9 9 10 9 9 8 7 5 4 4 5 5 5 5 5 4 4 5 6 7 9 9 10 10 9 9 8 8 9 10 11 11 12 14 14 13 14 16 16 16 17 18 18 18 18 19 20 20 21 23 23 23 23 22
15 15 15 15 15 15 16 19 20 19 18 19 18 18 17 16 15 14 14 13 12 11 11 10 9 9 8 8 9 10 10 10 11 13 14 15 14 13 13 12 10 9 8 7 7 6 5 5 5 5 5 5 7 7 8 9 11 12 11 11 10 9 9 11 11 12 13 13 13 15 15 16 17 16 15 15 16 16 18 19 21 22 22 22 21 20 20
16 17 17 15 14 16 17 18 18 17 17 17 16 15 14 14 14 13 13 12 10 9 8 8 7 8 9 9 10 11 11 10 9 11 14 16 17 16 15 15 14 13 12 11 10 9 8 7 5 5 5 6 7 8 9 11 13 15 14 13 11 9 9 10 10 11 12 12 13 14 14 15 16 16 15 16 18 20 21 22 22 20 19 18 18 19 19
16 20 20 17 15 14 14 13 13 14 15 15 14 13 11 10 10 11 11 10 9 8 8 8 8 9 10 9 9 9 9 8 7 8 10 13 15 16 16 16 15 15 14 13 13 13 13 12 10 7 6 6 7 8 10 12 13 15 16 14 12 12 13 13 12 12 12 12 13 14 14 15 17 17 18 18 19 20 20 20 21 21 20 20 21 21 21
18 19 19 18 17 19 18 16 13 11 11 11 12 12 11 10 9 9 9 7 6 6 5 6 6 6 6 5 5 5 5 5 5 5 6 8 10 12 13 14 14 14 14 13 14 15 15 15 15 13 10 9 8 8 9 10 11 13 13 11 12 14 16 16 15 15 15 15 15 15 15 16 18 18 18 18 18 19 19 20 21 22 22 21 21 21 20
19 19 19 19 19 20 19 17 16 15 14 12 10 11 10 9 6 5 4 4 3 3 3 3 3 2 2 1 1 1 1 1 2 2 2 3 5 6 8 9 9 9 9 10 12 14 15 16 16 16 15 14 13 13 12 10 10 10 10 8 11 15 18 18 18 19 18 17 17 17 17 19 20 19 18 17 16 16 18 19 19 20 20 19 18 18 18
19 19 19 18 19 20 20 18 18 17 16 15 15 15 15 12 9 7 6 6 5 5 4 3 3 3 3 3 3 3 3 3 2 2 2 2 2 2 3 5 5 4 4 4 6 9 11 13 14 16 17 18 18 18 19 19 18 17 17 16 17 18 18 19 21 22 22 21 19 17 17 18 17 15 15 16 17 18 19 19 20 20 21 19 18 18 19
23 23 22 22 23 23 23 22 21 21 19 17 17 17 17 15 13 11 11 11 11 10 9 8 8 8 8 7 6 6 6 6 4 4 4 4 2 2 1 1 1 1 2 1 2 4 5 6 8 10 13 16 18 19 20 21 22 23 23 24 24 23 20 18 17 17 19 19 18 16 16 15 15 16 18 18 18 19 20 21 21 23 23 22 20 20 20
29 29 28 28 27 27 26 24 22 21 20 19 19 18 17 16 14 14 14 14 13 12 12 11 10 10 9 8 8 8 7 6 5 5 5 5 4 3 2 1 1 2 2 2 1 1 2 3 4 6 7 10 13 15 16 18 18 18 18 19 20 22 22 20 17 15 14 13 13 15 16 15 15 19 21 21 20 21 22 22 22 23 23 23 24 23 22
30 30 29 27 26 26 26 24 22 21 20 19 19 18 17 16 16 16 16 15 14 13 13 12 11 11 10 9 8 7 7 7 7 6 5 4 4 3 3 4 5 5 4 5 5 4 2 2 3 5 5 6 7 9 12 14 16 16 15 13 13 14 15 16 15 14 12 11 12 15 17 15 15 17 19 18 18 20 22 22 22 22 22 23 22 19 18
25 25 25 24 24 23 22 21 20 19 19 19 18 17 16 15 15 14 14 13 13 13 13 12 12 12 12 11 9 8 8 9 9 8 7 7 7 7 7 8 9 8 7 8 8 7 5 4 3 4 4 5 5 5 6 8 10 12 13 12 11 11 11 12 12 12 11 12 14 16 16 14 15 18 20 19 19 20 20 19 19 19 20 21 19 16 15
22 22 22 21 20 20 19 18 18 17 17 17 17 15 14 14 13 12 12 11 11 12 12 11 11 12 12 11 9 9 9 10 10 10 9 8 7 8 9 10 10 9 8 8 9 9 8 7 7 6 5 5 5 6 6 7 6 6 7 7 8 8 9 9 9 10 10 11 12 12 11 10 11 15 19 19 20 20 20 18 16 17 19 19 17 15 14
20 20 19 18 17 16 16 15 15 15 15 14 14 14 13 12 12 12 11 11 11 11 11 11 11 10 10 10 10 10 10 10 9 8 7 6 6 6 8 8 7 7 7 8 8 9 9 9 9 8 7 7 6 7 8 9 9 8 7 6 6 6 5 5 4 5 7 8 8 8 8 8 8 9 11 13 14 16 17 17 16 17 18 17 14 12 13
19 18 16 15 15 15 14 13 12 11 10 10 11 12 12 11 10 10 10 10 11 11 11 11 10 10 10 11 11 11 11 10 9 8 8 7 8 8 8 7 6 6 6 6 7 7 7 8 8 8 8 8 7 8 8 9 9 8 8 7 7 6 6 4 3 3 3 4 4 5 7 7 7 7 8 10 10 12 15 17 18 17 15 13 12 12 13
16 16 15 14 13 12 10 9 8 8 8 9 10 11 10 9 8 8 8 8 8 8 8 8 8 9 9 9 9 11 11 11 11 11 10 10 10 10 9 8 8 6 5 5 5 5 6 6 7 7 8 8 8 8 9 9 9 9 8 8 7 7 7 7 6 5 5 4 4 4 5 6 7 8 9 10 10 10 12 15 17 16 14 14 14 14 14
13 13 13 12 11 9 7 6 5 6 8 9 10 9 8 8 8 8 8 7 7 7 7 7 6 6 6 7 8 9 10 10 11 11 11 11 11 11 11 11 10 9 7 6 5 5 5 6 6 7 7 8 8 8 9 9 10 10 10 9 9 9 9 9 9 8 8 7 7 6 6 7 8 9 9 10 11 11 13 15 16 15 15 15 15 14 14
10 10 10 9 9 8 7 6 5 5 6 7 6 5 5 5 6 7 8 9 9 10 10 10 10 10 10 10 11 11 11 12 12 13 13 12 12 11 11 12 12 11 9 8 7 6 6 5 5 6 7 8 8 8 9 9 9 9 10 10 10 10 11 10 10 10 10 9 9 9 9 9 9 10 10 10 11 12 14 15 15 15 15 15 15 15 16
7 6 5 5 6 7 7 7 7 7 6 5 4 4 4 4 5 6 7 8 9 10 11 12 13 14 15 15 15 16 16 16 16 16 15 14 14 14 14 15 15 16 15 14 13 12 11 9 7 6 7 7 8 9 9 10 10 10 11 11 12 12 13 12 12 12 12 11 11 10 10 10 10 11 11 12 12 13 13 14 14 14 15 16 16 17 18
7 5 5 5 5 6 7 8 9 10 9 8 8 8 7 7 8 8 9 9 9 10 11 12 13 14 15 16 16 17 17 17 18 18 18 18 18 18 19 19 19 18 18 18 17 17 17 15 12 10 9 8 8 9 10 10 11 11 12 12 13 14 15 15 14 14 13 13 12 12 11 11 11 12 13 13 14 14 15 15 16 16 17 18 18 19 20
12 10 10 10 9 10 11 12 12 12 12 11 10 10 10 11 11 12 13 13 13 13 13 13 13 14 15 15 16 17 18 19 20 20 20 20 20 19 20 19 19 18 18 18 18 18 18 18 17 15 14 13 12 12 12 12 13 13 13 13 14 15 16 16 16 16 15 15 14 14 13 13 13 13 14 15 16 17 18 18 19 19 20 21 22 22 23
Wind_Direction
254 255 252 242 241 243 241 236 231 230 229 228 227 226 228 229 227 233 238 237 237 239 241 244 245 249 255 255 254 253 251 249 248 246 249 253 255 258 254 242 237 239 240 238 236 235 234 230 226 226 229 232 234 236 238 240 240 238 236 235 230 225 224 226 229 229 227 228 229 227 226 225 223 221 219 218 216 215 216 216 215 215 213 212 213 215 217
264 256 255 250 245 244 243 241 236 233 232 233 233 231 230 231 232 236 241 242 242 243 246 247 246 246 247 247 247 248 250 253 252 250 251 250 248 252 251 241 236 238 239 239 239 238 235 232 229 227 228 232 234 235 237 239 239 238 237 237 233 228 227 230 232 231 227 226 227 226 226 225 224 223 220 219 218 217 217 217 217 216 214 213 216 217 219
282 263 256 251 246 243 241 240 238 235 234 235 236 235 232 231 232 235 240 242 244 246 251 252 249 241 235 238 248 252 253 254 250 251 254 245 236 240 241 231 230 233 235 235 238 239 237 234 234 231 230 231 233 236 239 240 240 239 237 237 235 232 232 232 232 232 229 227 226 226 226 225 224 223 221 220 219 219 219 219 219 218 215 215 217 219 221
299 263 256 254 245 244 241 238 235 231 229 231 234 235 234 233 233 233 235 238 242 247 251 254 251 241 234 238 251 255 250 240 236 245 258 247 234 235 238 230 224 225 227 229 233 236 234 233 235 236 233 232 234 236 239 241 240 239 237 235 234 235 235 232 231 233 232 228 226 226 225 225 225 224 223 222 221 221 221 221 221 220 218 218 219 221 223
298 254 296 300 271 255 243 235 232 229 227 229 232 234 235 236 236 235 235 239 244 247 250 253 253 246 238 238 247 254 250 242 245 253 261 257 239 233 235 232 225 223 227 231 233 234 232 232 235 238 236 234 233 234 237 240 240 238 235 232 231 232 232 230 230 232 232 228 227 227 226 224 224 225 224 223 222 222 223 223 223 222 221 221 222 223 225
289 281 316 316 304 246 236 235 234 233 232 231 232 234 236 238 238 239 241 245 247 246 249 254 255 249 243 239 242 250 252 250 256 260 258 260 248 234 232 231 228 230 234 238 238 235 234 234 236 237 236 233 231 233 237 239 239 238 237 234 232 231 231 231 230 230 231 229 227 227 226 224 223 225 225 224 224 223 224 224 223 223 223 224 225 226 228
291 306 314 313 295 230 235 240 242 239 238 239 238 238 240 241 240 242 243 245 246 244 245 255 258 252 247 241 239 246 251 252 257 260 259 262 253 231 226 228 230 234 237 240 240 237 236 238 238 237 235 229 227 231 236 238 237 237 238 238 238 235 234 234 233 231 230 230 228 227 226 224 223 223 225 225 224 224 225 225 225 225 226 227 228 229 230
285 295 290 276 273 243 234 238 242 237 236 240 238 237 239 239 239 240 240 241 243 241 240 248 255 251 245 241 240 245 250 253 256 259 260 260 245 220 215 219 229 235 236 239 239 237 239 242 243 240 234 226 224 227 232 233 233 236 239 242 244 242 239 238 237 235 233 231 228 226 225 225 224 223 223 224 224 225 226 226 226 226 228 229 230 232 233
266 266 268 273 285 269 225 217 224 218 215 220 226 230 234 235 236 237 236 236 239 239 237 241 248 247 239 235 238 244 250 253 253 255 255 247 227 213 211 216 227 234 237 239 239 238 237 236 237 238 231 222 220 224 227 230 233 237 241 244 246 248 247 243 239 238 236 234 231 226 224 225 225 224 223 223 224 225 226 227 228 228 229 231 232 234 235
254 259 268 278 287 263 201 189 192 196 202 210 217 225 230 230 230 232 232 233 235 237 235 234 240 243 238 233 237 242 247 248 244 244 242 226 214 212 212 216 225 231 232 233 233 233 233 228 226 228 224 219 219 224 229 234 237 240 243 244 246 250 253 252 249 246 241 236 234 229 225 225 226 225 224 224 224 226 227 229 229 230 232 233 235 237 238
252 256 255 259 270 258 223 188 180 187 199 207 213 222 227 226 228 231 234 235 233 233 232 231 236 241 240 238 240 239 239 239 234 232 228 218 216 218 219 222 227 225 225 226 224 224 228 227 225 223 219 219 225 231 235 238 239 241 245 247 249 252 256 257 256 255 252 245 238 233 229 226 226 226 225 225 226 227 229 231 231 232 233 235 236 236 237
241 245 259 271 268 271 271 220 188 183 185 190 195 207 220 221 224 228 231 230 225 224 226 228 233 239 240 239 238 233 230 229 226 225 225 223 225 228 230 232 232 228 226 226 225 225 228 229 229 225 221 225 233 239 241 242 242 245 249 252 253 253 254 256 256 257 258 255 248 241 235 229 226 226 226 226 226 228 229 231 232 232 233 233 234 235 236
226 228 251 275 270 271 280 271 222 183 173 178 183 191 204 209 213 214 213 207 201 203 206 210 219 227 229 229 230 230 229 228 225 222 220 221 224 227 229 231 232 229 226 224 224 225 226 224 224 225 227 231 238 243 245 246 245 247 251 254 253 250 250 252 255 257 258 262 264 255 242 233 229 226 226 226 227 229 230 231 233 233 233 232 232 233 234
221 223 239 270 275 269 272 279 228 182 173 174 178 184 189 191 191 193 191 185 183 187 187 187 195 203 206 208 212 217 222 224 223 220 217 216 217 219 222 224 224 223 223 223 223 224 225 224 223 224 228 232 237 242 245 247 248 249 252 253 250 247 248 250 254 259 262 265 270 267 253 241 235 230 229 227 227 229 231 231 232 233 233 232 232 233 234
216 218 223 252 272 262 264 284 200 177 171 163 161 167 172 173 176 181 182 182 183 186 189 194 200 206 210 211 211 214 219 225 229 228 225 224 222 220 221 221 219 219 219 220 222 223 226 229 227 227 230 232 236 240 243 244 246 249 250 251 248 246 248 251 254 260 265 267 269 269 264 255 244 236 232 229 227 228 230 231 232 233 233 232 233 235 236
208 208 212 227 254 270 288 327 131 161 161 157 155 159 164 167 173 178 179 178 180 183 188 197 203 208 213 217 222 226 229 234 240 243 244 245 242 238 236 233 230 228 226 226 227 229 230 233 233 235 237 238 239 240 240 241 244 247 247 249 248 247 249 251 251 254 259 264 268 269 267 263 252 241 234 231 228 228 229 230 231 232 231 231 232 233 234
211 218 223 229 243 266 310 340 343 155 157 157 155 154 161 170 174 179 181 179 177 178 181 186 192 198 203 211 221 230 235 237 242 247 249 252 253 252 252 250 246 243 239 238 240 241 241 239 238 238 241 244 245 243 242 242 244 247 248 249 250 249 251 252 251 251 254 259 261 264 265 265 260 249 238 232 230 228 228 229 230 230 229 228 229 230 230
213 222 226 229 236 245 287 337 324 156 154 155 156 156 165 173 172 171 174 174 170 168 170 173 178 185 194 207 220 232 240 245 249 252 255 258 258 257 256 255 252 250 248 245 245 246 246 246 244 243 242 244 246 247 246 245 245 247 248 249 250 252 254 254 253 252 254 255 255 256 259 261 263 260 249 238 232 230 229 228 228 228 226 225 227 230 231
209 218 224 227 232 234 244 311 315 167 162 163 167 170 169 168 166 164 164 165 163 161 163 166 173 185 198 213 228 241 250 258 262 265 267 268 267 265 263 261 258 256 254 252 249 247 247 246 247 246 245 243 243 243 244 245 247 249 250 249 250 251 252 255 255 254 254 256 255 253 252 253 256 259 257 247 237 233 231 230 228 225 222 226 231 232 235
201 212 221 225 230 235 241 272 308 194 180 184 187 186 173 158 156 158 157 158 159 158 160 166 174 191 209 223 238 248 255 262 267 270 273 274 273 271 269 266 265 262 260 258 255 252 250 247 246 247 246 246 244 242 241 241 243 246 249 251 251 251 252 253 254 253 253 254 254 254 252 250 250 252 254 252 245 238 234 232 230 227 224 228 234 235 238
196 206 217 222 230 237 241 251 281 304 231 203 189 184 178 160 143 139 141 144 150 154 163 181 190 210 238 238 249 259 260 263 266 267 269 271 271 270 268 266 265 264 263 262 261 259 258 255 253 252 251 251 251 251 251 249 247 247 248 249 251 253 253 253 253 253 252 252 252 254 254 253 252 251 252 251 248 246 243 238 232 230 231 232 231 233 235
190 200 212 221 229 236 238 237 249 299 312 214 185 154 159 194 69 93 114 122 127 138 149 176 202 239 262 264 274 282 282 284 285 281 280 278 273 270 269 267 266 265 264 264 264 264 264 263 262 260 259 258 259 259 260 260 260 259 257 256 256 256 256 255 254 252 251 250 251 252 253 253 253 251 251 250 246 246 249 247 236 230 231 229 224 224 227
193 197 207 218 226 232 233 232 235 267 330 303 243 264 326 11 34 47 71 88 91 96 90 333 267 273 278 282 290 296 299 302 301 299 299 295 287 280 274 270 268 267 264 263 262 262 263 264 264 264 263 263 262 262 263 265 265 265 264 263 261 259 258 258 258 256 254 252 251 250 251 252 252 250 249 249 246 247 255 256 245 235 231 224 218 218 220
200 201 207 216 223 226 228 230 231 242 295 326 300 291 297 308 14 36 41 47 53 53 29 2 335 314 303 300 302 306 307 308 307 306 305 300 292 283 275 270 267 263 259 257 255 255 256 256 257 259 260 261 261 262 263 264 264 266 266 266 264 262 259 258 257 257 256 254 253 252 251 250 250 250 248 247 246 248 254 257 246 235 229 222 218 217 218
197 202 207 214 218 219 223 228 229 237 266 312 317 306 303 312 13 45 40 27 25 26 17 0 346 335 326 318 316 315 312 309 306 302 299 294 287 280 273 269 266 262 259 256 254 254 255 256 258 259 260 261 263 262 263 265 267 268 270 271 271 269 266 262 259 256 254 253 252 252 251 249 248 245 241 240 242 243 245 249 241 226 220 219 215 212 220
196 201 205 209 211 215 223 228 227 232 248 282 301 303 304 336 17 35 33 16 5 359 355 349 341 335 329 324 321 317 313 309 304 300 297 292 287 282 279 275 272 269 269 268 268 269 268 267 269 270 268 267 267 267 269 272 272 274 277 278 280 280 278 273 267 260 255 252 250 249 248 247 246 243 238 235 233 233 237 242 240 227 218 214 208 209 226
195 201 206 211 212 214 221 224 225 229 239 255 273 280 272 278 324 349 357 351 340 332 331 331 330 329 326 322 319 314 309 309 315 316 311 305 300 298 297 295 291 288 287 288 290 291 290 289 287 284 282 281 281 281 281 280 279 282 285 286 290 291 285 277 269 258 247 242 245 250 244 233 230 233 235 230 223 222 228 230 225 217 210 204 203 215 232
192 198 202 208 212 216 220 222 223 226 232 241 250 254 250 252 258 265 287 307 313 315 315 313 314 319 322 320 316 312 309 315 323 323 319 314 311 310 309 308 305 301 300 302 302 300 301 302 299 296 296 297 298 299 298 294 292 293 291 291 300 301 292 282 272 258 245 238 244 258 252 213 206 211 214 209 203 208 217 213 205 203 203 202 211 226 233
193 197 197 196 200 207 214 218 220 223 230 237 239 236 232 234 236 236 246 264 280 291 294 291 292 299 305 309 313 317 323 330 333 332 330 325 322 321 316 311 310 311 311 311 310 309 307 303 298 298 302 308 328 9 11 328 287 283 291 300 305 304 317 35 30 251 247 250 261 301 292 185 171 173 178 175 174 187 198 195 190 196 202 205 215 223 226
189 194 193 188 188 194 202 208 212 215 221 228 230 226 221 220 222 222 224 236 250 259 262 265 271 278 283 291 308 327 340 345 343 339 338 334 330 327 317 304 305 317 323 321 321 322 316 299 287 294 305 335 59 63 70 123 173 184 195 285 291 263 206 127 110 121 132 81 63 77 98 120 122 127 141 151 155 166 176 181 189 200 205 210 216 220 222
183 188 187 184 185 190 198 205 209 209 210 212 215 215 212 209 207 202 199 206 215 220 225 234 246 255 258 261 282 347 353 344 332 325 327 327 326 325 320 311 309 315 320 319 321 324 318 291 244 243 226 137 112 113 130 139 147 156 160 166 217 201 174 159 146 135 137 149 147 128 126 140 148 153 160 168 173 177 183 191 199 205 209 214 216 215 214
171 175 176 176 178 183 192 202 209 209 205 203 205 207 208 206 198 190 187 191 193 194 198 206 215 223 226 225 241 272 283 289 283 272 269 282 293 297 302 312 313 300 295 300 307 314 315 300 256 216 200 187 171 164 166 166 159 153 154 156 157 168 176 172 166 169 176 172 170 174 175 176 181 185 187 190 194 196 199 202 205 208 211 211 208 206 206
156 155 158 161 168 177 183 190 198 200 197 194 196 198 202 204 201 193 191 195 198 200 203 205 208 215 221 234 260 268 266 262 255 248 248 255 263 268 271 276 284 291 297 303 305 307 309 298 274 246 230 220 201 186 186 191 185 174 172 178 178 180 190 192 185 184 189 191 189 190 193 197 201 204 206 208 209 207 205 204 203 202 201 198 197 200 204
140 141 147 158 171 178 177 178 184 188 189 190 192 192 193 195 195 194 197 202 207 212 217 218 221 228 237 250 265 273 273 267 258 252 251 251 253 256 259 261 265 272 284 299 305 301 295 287 273 258 249 235 216 206 204 203 203 202 194 189 196 205 204 200 201 204 206 207 207 208 209 212 213 213 211 207 203 200 195 192 191 192 194 197 201 205 205
138 137 134 141 159 174 179 180 181 181 181 181 181 181 182 185 188 189 193 198 205 215 225 231 240 248 253 261 270 275 279 279 273 263 256 252 250 250 252 253 256 261 267 278 287 289 287 283 274 260 249 234 222 218 210 200 206 216 209 191 188 204 206 195 198 205 209 211 213 212 209 208 209 209 207 203 199 196 194 194 197 201 208 215 217 214 211
129 124 117 114 119 130 143 157 169 178 184 185 181 173 166 167 180 193 201 208 217 229 241 253 261 266 269 274 281 285 289 291 289 278 265 256 251 249 249 250 252 252 254 258 264 270 273 274 272 270 264 250 234 223 213 205 209 216 211 192 181 189 194 190 191 196 200 205 207 205 203 206 207 207 206 207 209 210 213 217 221 226 231 234 230 222 220
119 117 115 113 108 105 106 109 116 133 156 173 181 179 172 166 175 190 201 207 212 220 236 248 257 264 272 279 284 285 282 278 274 269 261 254 250 248 248 249 249 250 251 250 250 253 257 259 259 261 263 261 255 243 229 221 219 220 215 200 190 196 200 202 206 210 209 208 210 212 213 216 218 220 222 226 228 229 229 229 230 231 232 230 225 219 214
108 107 106 106 105 105 106 105 101 100 102 106 118 133 140 141 147 158 169 180 185 190 205 222 236 255 268 275 273 253 219 209 234 249 239 233 237 245 252 254 252 250 248 244 241 243 244 243 244 248 252 254 256 257 257 254 247 243 243 232 215 213 215 217 222 225 223 219 221 226 229 231 232 233 233 232 231 229 227 224 220 217 215 212 206 200 197
102 102 100 99 99 100 100 100 98 97 95 93 96 102 106 107 108 114 118 114 104 96 96 97 93 95 97 91 87 97 109 113 111 105 109 133 177 226 259 262 254 239 228 225 230 235 237 237 238 239 241 244 246 249 255 260 260 259 258 253 244 239 235 230 229 232 235 237 239 240 237 234 230 220 214 216 219 218 216 213 206 201 199 199 199 197 198
97 97 97 97 97 95 94 94 94 93 93 94 96 99 100 101 103 105 102 94 87 82 78 78 85 93 96 97 100 102 99 96 94 92 91 90 85 66 6 278 231 157 128 172 222 219 220 228 235 237 238 241 243 245 249 254 257 259 260 257 254 252 249 243 240 239 238 240 241 234 227 229 227 214 206 209 216 218 214 209 205 201 198 197 201 204 207
91 91 90 90 90 89 89 89 89 88 87 87 88 87 87 87 89 89 86 84 85 85 83 81 85 89 90 93 100 104 98 87 76 74 77 83 86 81 59 33 81 95 75 33 330 242 219 227 241 245 246 245 244 244 247 250 252 256 259 259 257 254 250 249 252 254 248 240 233 224 222 228 234 228 219 213 214 218 216 212 209 206 202 201 202 204 207
86 87 87 87 88 89 90 91 92 91 89 86 84 84 84 84 83 83 82 82 82 83 82 81 81 80 78 78 81 85 84 76 68 62 58 61 66 57 33 30 44 49 33 16 8 357 335 298 276 272 273 268 255 246 243 243 245 246 248 250 256 256 245 235 235 242 242 236 232 232 228 223 225 233 236 231 225 223 220 215 211 209 205 203 202 201 203
81 82 82 82 84 85 88 89 91 91 89 88 87 87 88 88 87 85 85 84 82 79 77 76 75 74 72 70 70 73 72 67 60 52 45 40 36 31 28 30 33 28 16 7 3 1 357 348 329 314 309 308 304 291 271 255 248 244 242 244 250 255 247 233 228 235 242 244 245 247 243 229 218 223 229 232 233 232 228 223 219 214 207 205 206 210 215
79 80 81 83 85 87 88 87 86 85 86 86 85 83 83 84 85 84 84 84 82 78 74 71 70 71 68 63 62 61 57 52 47 42 38 33 32 37 41 40 33 23 15 4 355 351 350 350 348 345 342 336 326 321 316 308 294 277 267 264 266 270 271 264 255 254 260 262 256 254 258 258 242 228 225 226 229 227 221 214 209 209 212 218 224 228 230
79 79 80 81 84 86 86 86 85 85 86 87 87 84 80 78 77 75 72 68 67 67 63 60 60 61 57 53 51 50 47 44 42 38 31 26 28 38 42 39 31 25 21 12 358 346 341 341 343 343 340 337 331 324 318 317 316 315 317 318 312 308 310 308 293 277 277 277 267 257 263 275 269 244 231 229 229 227 225 221 215 215 222 229 234 234 236
80 81 79 76 75 76 77 80 83 85 86 86 84 82 78 75 74 73 69 62 59 58 55 49 46 45 42 42 41 39 34 32 32 30 26 24 26 28 25 17 10 8 8 4 359 350 339 333 331 329 325 323 320 315 310 309 308 308 311 315 317 315 314 313 307 287 277 277 274 267 267 271 266 246 233 231 233 238 242 237 227 219 220 227 232 237 245
75 74 71 68 67 68 69 71 73 72 68 64 62 62 62 59 57 58 59 57 53 52 50 46 42 40 37 33 28 23 20 18 16 15 15 16 18 17 12 5 1 359 352 341 335 333 328 320 312 309 309 307 306 306 305 304 300 298 296 295 297 299 298 295 289 276 261 256 254 248 247 251 252 247 243 240 237 235 236 235 231 226 224 228 236 246 255
75 74 72 71 72 72 75 77 72 65 62 60 55 50 43 33 23 18 21 22 17 12 12 14 15 14 10 4 1 1 3 1 357 354 356 1 3 3 1 1 1 3 3 358 348 336 324 313 301 293 290 289 289 293 296 297 297 297 294 289 287 288 289 289 289 284 276 267 257 247 241 242 245 247 250 250 243 235 233 237 239 237 231 230 237 245 252
80 81 83 86 85 79 76 73 67 62 63 64 55 37 23 11 357 348 347 345 340 337 338 338 337 333 332 332 334 336 338 339 340 341 342 343 343 343 344 344 343 340 337 336 333 329 323 315 303 292 285 282 281 281 282 285 289 291 291 291 291 290 289 289 289 289 286 280 271 261 254 250 246 243 243 245 245 244 244 243 241 237 235 238 242 246 248
71 77 81 81 73 61 49 38 32 32 34 28 6 347 337 326 316 312 311 311 311 312 315 317 317 317 316 318 320 322 324 327 330 332 331 328 325 323 323 323 323 321 319 315 312 310 307 303 296 286 277 274 274 273 272 271 272 273 275 279 282 284 286 287 288 288 288 288 284 278 272 268 262 255 249 245 244 245 246 245 244 243 244 246 247 249 252
26 25 22 15 11 8 2 356 354 356 355 346 335 328 321 312 306 302 298 296 297 298 299 302 305 307 308 309 311 313 315 317 319 320 320 318 316 315 315 315 316 315 312 309 306 303 301 299 294 284 271 262 258 257 257 259 260 261 263 267 271 275 278 280 281 281 282 283 284 284 284 282 277 272 268 265 261 257 254 252 251 251 250 250 251 253 256
359 357 355 348 339 332 327 325 324 326 327 325 321 316 310 303 300 299 299 299 299 297 296 296 298 299 299 299 299 301 304 307 309 310 310 310 310 311 311 312 311 310 308 305 303 301 299 297 294 288 280 270 261 253 247 245 245 247 250 253 258 263 268 272 274 274 274 273 273 274 275 276 275 273 272 270 268 265 263 262 260 258 257 257 257 258 260
Height
3029 3031 3033 3035 3035 3035 3037 3039 3041 3044 3046 3046 3045 3044 3046 3050 3048 3046 3051 3057 3056 3059 3063 3065 3067 3069 3070 3070 3072 3073 3075 3076 3077 3079 3079 3080 3081 3082 3083 3085 3088 3090 3092 3095 3097 3099 3102 3104 3106 3108 3110 3112 3114 3115 3117 3119 3121 3122 3124 3126 3128 3129 3131 3132 3133 3135 3137 3139 3140 3142 3143 3145 3147 3150 3152 3155 3157 3160 3162 3164 3166 3168 3169 3171 3171 3173 3174
3025 3028 3030 3032 3033 3033 3034 3035 3037 3040 3041 3041 3040 3042 3045 3045 3044 3047 3052 3052 3052 3056 3060 3062 3065 3068 3068 3068 3068 3070 3072 3073 3075 3076 3076 3077 3079 3079 3079 3081 3085 3087 3089 3092 3094 3096 3099 3101 3103 3106 3108 3109 3111 3112 3114 3116 3117 3119 3121 3122 3124 3126 3127 3129 3131 3133 3135 3136 3138 3139 3141 3143 3145 3147 3150 3152 3155 3157 3160 3162 3164 3166 3167 3168 3169 3170 3171
3023 3026 3028 3029 3030 3029 3030 3031 3033 3035 3036 3036 3036 3038 3041 3042 3043 3048 3050 3047 3048 3053 3056 3058 3062 3065 3066 3065 3065 3068 3070 3070 3072 3072 3073 3074 3076 3077 3078 3079 3081 3084 3086 3088 3090 3092 3095 3097 3100 3102 3104 3106 3108 3109 3111 3113 3114 3116 3117 3119 3121 3122 3124 3126 3128 3129 3131 3133 3135 3137 3139 3140 3143 3145 3147 3149 3152 3154 3157 3160 3162 3163 3165 3165 3166 3167 3168
3021 3024 3026 3025 3025 3024 3025 3026 3026 3027 3028 3028 3030 3033 3036 3038 3040 3045 3045 3041 3044 3050 3054 3054 3058 3062 3063 3062 3062 3065 3067 3067 3068 3069 3070 3071 3073 3074 3076 3077 3078 3080 3083 3085 3087 3089 3091 3094 3096 3099 3101 3103 3105 3106 3108 3110 3111 3112 3114 3115 3117 3119 3121 3123 3124 3126 3128 3130 3132 3134 3136 3138 3140 3142 3144 3146 3149 3151 3154 3157 3159 3160 3161 3162 3163 3164 3165
3020 3022 3023 3021 3022 3022 3016 3013 3015 3020 3024 3025 3027 3031 3033 3035 3037 3039 3037 3036 3042 3049 3050 3051 3055 3058 3059 3060 3061 3061 3063 3064 3065 3065 3067 3068 3069 3071 3073 3074 3076 3078 3080 3082 3084 3086 3088 3090 3093 3095 3098 3100 3102 3103 3105 3107 3108 3109 3110 3112 3114 3116 3118 3119 3120 3122 3124 3126 3128 3131 3133 3135 3137 3139 3141 3143 3146 3149 3151 3154 3155 3157 3158 3159 3160 3161 3162
3020 3020 3021 3020 3020 3016 3007 3005 3013 3019 3022 3024 3026 3028 3031 3033 3034 3033 3033 3037 3042 3046 3046 3049 3052 3054 3056 3058 3058 3057 3058 3061 3062 3063 3064 3065 3066 3067 3069 3072 3074 3076 3078 3080 3082 3084 3086 3088 3090 3093 3095 3097 3099 3101 3103 3104 3105 3106 3108 3110 3111 3113 3114 3115 3117 3118 3120 3122 3125 3127 3130 3132 3134 3136 3138 3141 3143 3146 3148 3149 3151 3152 3153 3154 3156 3157 3159
3020 3018 3020 3020 3015 3009 3006 3010 3016 3018 3020 3025 3027 3027 3029 3030 3030 3030 3032 3036 3039 3041 3044 3047 3049 3051 3053 3054 3053 3053 3054 3057 3058 3060 3062 3063 3064 3065 3066 3069 3072 3074 3076 3078 3079 3081 3083 3085 3087 3089 3091 3094 3096 3098 3099 3100 3102 3103 3105 3107 3108 3110 3111 3112 3114 3115 3116 3118 3121 3123 3126 3128 3130 3132 3135 3137 3140 3142 3143 3145 3147 3148 3149 3150 3152 3153 3155
3020 3019 3019 3018 3010 3005 3007 3011 3012 3013 3018 3022 3023 3023 3023 3024 3025 3026 3028 3032 3035 3039 3042 3044 3045 3047 3049 3050 3050 3050 3051 3053 3055 3057 3059 3061 3062 3063 3065 3067 3069 3072 3073 3075 3076 3078 3080 3082 3084 3086 3088 3090 3092 3094 3096 3097 3099 3101 3103 3104 3105 3107 3108 3109 3111 3112 3114 3115 3117 3119 3121 3123 3126 3128 3131 3133 3135 3137 3139 3140 3142 3143 3144 3145 3147 3149 3151
3018 3017 3016 3014 3009 3004 3005 3006 3006 3008 3011 3014 3016 3017 3017 3019 3022 3023 3025 3028 3032 3035 3038 3041 3042 3044 3045 3047 3047 3047 3047 3049 3052 3054 3057 3059 3060 3062 3063 3065 3067 3069 3071 3072 3074 3075 3076 3078 3080 3082 3085 3087 3089 3091 3092 3094 3096 3098 3100 3101 3103 3104 3105 3106 3107 3108 3110 3112 3113 3114 3116 3119 3121 3124 3126 3129 3131 3132 3134 3135 3136 3138 3139 3141 3143 3145 3147
3015 3016 3014 3012 3009 3004 3001 3001 3002 3003 3004 3007 3011 3013 3012 3015 3018 3019 3022 3025 3028 3031 3035 3037 3038 3040 3042 3044 3044 3045 3046 3047 3049 3052 3054 3056 3058 3060 3061 3063 3065 3066 3068 3069 3071 3072 3073 3074 3076 3079 3082 3084 3086 3088 3090 3092 3094 3095 3096 3098 3100 3101 3102 3103 3104 3105 3106 3108 3109 3110 3112 3114 3117 3119 3122 3124 3126 3127 3129 3130 3131 3134 3136 3138 3140 3142 3143
3013 3014 3012 3010 3007 3002 2998 2998 2999 2999 3000 3004 3010 3010 3009 3011 3014 3016 3019 3022 3025 3028 3031 3033 3035 3037 3038 3040 3041 3043 3044 3045 3047 3049 3051 3053 3055 3057 3058 3060 3062 3064 3065 3067 3068 3070 3071 3073 3075 3077 3080 3082 3084 3085 3087 3089 3090 3092 3093 3095 3096 3098 3099 3100 3102 3103 3103 3104 3105 3107 3109 3110 3113 3115 3117 3120 3121 3123 3125 3126 3127 3130 3132 3134 3136 3138 3139
3010 3011 3010 3008 3005 3000 2997 2997 2997 2997 2998 3002 3007 3007 3006 3008 3011 3013 3017 3020 3023 3025 3028 3030 3032 3033 3035 3038 3040 3041 3042 3043 3045 3047 3049 3050 3052 3053 3055 3057 3059 3061 3063 3064 3066 3068 3069 3072 3074 3076 3078 3080 3081 3082 3084 3086 3087 3088 3089 3091 3094 3095 3096 3098 3099 3099 3100 3101 3102 3103 3105 3107 3109 3110 3113 3115 3117 3119 3120 3121 3123 3126 3128 3130 3131 3133 3135
3007 3008 3007 3005 3002 2998 2997 2996 2995 2996 2998 2999 3001 3003 3005 3009 3011 3013 3016 3018 3021 3023 3025 3027 3028 3030 3033 3035 3037 3038 3040 3041 3042 3044 3046 3047 3049 3050 3052 3054 3056 3058 3059 3061 3063 3065 3067 3069 3071 3073 3075 3076 3077 3079 3081 3082 3083 3085 3087 3089 3091 3092 3093 3094 3095 3096 3096 3098 3099 3100 3102 3103 3105 3106 3108 3110 3112 3114 3116 3117 3119 3121 3123 3125 3127 3129 3131
3003 3004 3005 3005 3001 2997 2996 2996 2995 2995 2996 2996 2997 3001 3004 3008 3010 3012 3015 3017 3019 3021 3023 3025 3027 3029 3031 3032 3034 3036 3037 3039 3040 3042 3043 3045 3046 3047 3049 3050 3052 3054 3055 3057 3059 3061 3062 3064 3066 3068 3070 3072 3074 3075 3076 3078 3080 3082 3084 3085 3087 3089 3089 3090 3091 3092 3093 3094 3095 3097 3098 3100 3101 3102 3103 3105 3107 3109 3111 3113 3115 3116 3118 3121 3123 3124 3126
3000 3001 3003 3004 3000 2996 2995 2995 2994 2993 2993 2994 2996 2999 3003 3007 3010 3011 3012 3014 3017 3018 3020 3022 3024 3026 3028 3030 3032 3033 3035 3037 3038 3040 3041 3043 3044 3045 3046 3048 3049 3051 3053 3054 3056 3058 3059 3061 3063 3065 3066 3067 3069 3070 3071 3074 3077 3078 3079 3081 3083 3084 3085 3086 3087 3088 3089 3090 3091 3092 3094 3096 3097 3098 3099 3101 3102 3104 3105 3107 3109 3111 3114 3116 3118 3119 3121
2996 2996 2998 3000 2998 2996 2995 2994 2993 2992 2993 2994 2995 2997 3002 3007 3010 3010 3011 3012 3014 3016 3018 3020 3022 3023 3026 3027 3029 3031 3033 3034 3036 3037 3039 3040 3041 3043 3044 3046 3047 3049 3050 3052 3053 3055 3057 3059 3060 3062 3063 3064 3065 3066 3068 3070 3072 3073 3074 3076 3077 3078 3080 3081 3082 3083 3084 3086 3087 3088 3089 3091 3092 3094 3095 3096 3097 3098 3099 3101 3103 3105 3108 3109 3111 3112 3115
2990 2992 2994 2997 2997 2995 2994 2994 2993 2992 2992 2992 2994 2997 3001 3005 3007 3008 3009 3010 3011 3013 3015 3017 3019 3021 3023 3025 3027 3028 3030 3032 3033 3035 3036 3038 3039 3041 3042 3044 3045 3047 3048 3050 3051 3052 3054 3055 3057 3058 3059 3060 3062 3063 3065 3067 3067 3068 3070 3071 3072 3073 3074 3076 3077 3078 3080 3081 3082 3083 3084 3085 3086 3088 3090 3090 3091 3092 3093 3094 3096 3098 3100 3102 3104 3106 3108
2988 2990 2992 2995 2995 2994 2993 2994 2994 2992 2990 2991 2993 2996 3001 3003 3004 3005 3006 3007 3008 3010 3012 3014 3017 3019 3021 3023 3025 3026 3028 3030 3031 3032 3034 3036 3037 3038 3040 3041 3043 3044 3045 3047 3048 3049 3050 3051 3052 3053 3054 3056 3057 3059 3060 3061 3062 3064 3065 3065 3066 3068 3069 3070 3072 3073 3074 3075 3076 3078 3078 3078 3080 3082 3083 3083 3085 3086 3087 3088 3089 3091 3094 3096 3099 3100 3103
2986 2987 2988 2990 2992 2992 2992 2992 2993 2991 2991 2992 2994 2995 2997 2998 3000 3001 3002 3004 3005 3007 3009 3012 3014 3017 3019 3021 3023 3025 3026 3027 3029 3030 3031 3033 3034 3035 3036 3037 3039 3040 3042 3043 3044 3046 3047 3048 3048 3049 3050 3051 3052 3053 3055 3056 3057 3058 3059 3059 3060 3061 3062 3063 3065 3066 3067 3068 3069 3070 3071 3072 3072 3073 3074 3075 3077 3078 3080 3081 3082 3085 3088 3091 3093 3095 3099
2983 2984 2985 2987 2988 2989 2990 2992 2993 2992 2993 2995 2998 2998 2996 2995 2995 2997 2999 3000 3002 3004 3006 3009 3012 3014 3017 3019 3021 3022 3024 3025 3026 3027 3028 3029 3030 3031 3032 3033 3035 3036 3037 3038 3040 3041 3042 3044 3045 3046 3046 3048 3048 3049 3050 3051 3052 3052 3052 3053 3053 3054 3055 3056 3057 3058 3059 3060 3061 3062 3063 3064 3064 3064 3065 3067 3068 3070 3072 3075 3077 3080 3083 3085 3087 3090 3094
2981 2982 2982 2983 2984 2986 2988 2992 2994 2995 2996 2998 2999 3000 3000 2999 2996 2993 2993 2996 2999 3001 3003 3006 3008 3011 3014 3015 3018 3019 3021 3022 3024 3025 3025 3026 3027 3028 3028 3029 3031 3032 3033 3034 3035 3036 3037 3039 3040 3041 3042 3043 3044 3045 3046 3046 3047 3047 3047 3047 3047 3048 3049 3050 3050 3050 3051 3052 3053 3054 3054 3055 3055 3056 3057 3059 3060 3062 3064 3068 3071 3075 3077 3078 3080 3083 3087
2978 2979 2979 2981 2982 2984 2988 2992 2995 2996 2997 2997 2997 2999 3001 3002 2998 2992 2989 2992 2996 2998 3000 3003 3005 3008 3010 3012 3014 3016 3017 3019 3020 3022 3023 3024 3024 3025 3026 3026 3027 3028 3029 3030 3031 3032 3032 3034 3035 3036 3036 3037 3038 3039 3039 3040 3040 3041 3041 3041 3042 3042 3042 3043 3043 3043 3043 3044 3044 3045 3045 3045 3047 3048 3049 3050 3050 3051 3053 3059 3064 3067 3068 3069 3072 3076 3079
2975 2977 2978 2979 2981 2982 2986 2990 2994 2997 2997 2997 2997 2999 3000 3000 2997 2993 2991 2992 2994 2996 2998 3000 3002 3004 3007 3009 3011 3013 3015 3016 3017 3018 3019 3020 3021 3022 3023 3023 3024 3025 3026 3027 3027 3028 3029 3029 3030 3031 3031 3031 3032 3032 3032 3033 3033 3033 3033 3034 3034 3035 3035 3035 3035 3036 3036 3036 3036 3035 3035 3035 3036 3037 3038 3040 3041 3042 3045 3051 3058 3062 3064 3065 3068 3071 3074
2973 2975 2976 2978 2980 2981 2984 2987 2991 2995 2997 2997 2997 2998 2999 2998 2996 2993 2993 2993 2994 2995 2997 2998 3000 3002 3004 3006 3009 3010 3012 3013 3014 3015 3016 3017 3018 3018 3019 3019 3020 3021 3022 3023 3024 3024 3025 3025 3026 3026 3026 3026 3026 3026 3026 3027 3027 3026 3026 3026 3026 3027 3027 3027 3027 3027 3027 3027 3026 3024 3024 3025 3025 3025 3028 3031 3033 3035 3039 3047 3053 3058 3061 3063 3065 3068 3070
2970 2972 2974 2977 2979 2981 2982 2985 2989 2993 2996 2996 2996 2997 2997 2997 2994 2993 2994 2995 2995 2995 2996 2997 2998 3000 3002 3004 3006 3008 3009 3010 3011 3012 3013 3014 3014 3015 3015 3016 3017 3017 3018 3019 3019 3020 3021 3021 3021 3021 3021 3021 3021 3021 3021 3021 3021 3021 3021 3020 3020 3020 3020 3019 3019 3017 3016 3016 3015 3013 3012 3011 3009 3010 3014 3021 3025 3027 3032 3041 3051 3056 3057 3057 3060 3064 3066
2969 2971 2973 2975 2978 2980 2981 2984 2987 2991 2994 2996 2996 2995 2995 2995 2994 2993 2994 2995 2996 2996 2996 2996 2998 3000 3001 3003 3005 3007 3008 3009 3009 3010 3010 3011 3011 3011 3012 3013 3014 3014 3015 3015 3015 3016 3016 3017 3017 3017 3017 3016 3016 3016 3016 3016 3015 3015 3014 3013 3013 3012 3011 3010 3009 3008 3008 3006 3004 3003 2999 2994 2992 2998 3005 3012 3018 3021 3023 3032 3045 3053 3053 3052 3055 3059 3061
2967 2969 2971 2973 2976 2978 2981 2983 2986 2990 2993 2995 2996 2996 2995 2994 2994 2995 2995 2996 2996 2996 2996 2996 2998 2999 3001 3003 3004 3006 3007 3008 3008 3008 3008 3009 3009 3009 3010 3010 3011 3011 3012 3012 3012 3012 3012 3012 3013 3012 3012 3011 3011 3010 3010 3010 3009 3008 3007 3006 3006 3004 3002 3001 3000 3001 3001 2998 2996 2998 2989 2973 2967 2980 2996 3005 3010 3013 3017 3025 3037 3045 3047 3048 3050 3054 3057
2966 2968 2969 2971 2974 2977 2980 2982 2985 2988 2991 2993 2995 2996 2995 2994 2994 2995 2996 2996 2995 2995 2996 2997 2998 3000 3002 3003 3004 3005 3006 3007 3007 3008 3008 3008 3008 3008 3008 3009 3009 3009 3009 3009 3009 3009 3010 3010 3009 3009 3008 3007 3006 3005 3005 3005 3006 3005 3005 3004 3003 3001 2999 2998 2997 2998 2998 2995 2995 2997 2987 2967 2957 2968 2985 2997 3001 3005 3014 3025 3034 3039 3042 3044 3047 3050 3054
2965 2966 2967 2970 2972 2975 2977 2980 2982 2985 2988 2990 2992 2994 2994 2993 2994 2994 2994 2994 2994 2995 2996 2998 2999 3001 3002 3003 3004 3004 3005 3006 3007 3008 3008 3008 3008 3008 3008 3008 3008 3008 3008 3007 3008 3008 3008 3008 3008 3007 3006 3005 3003 3002 3002 3002 3003 3004 3004 3004 3003 3002 3001 2999 2998 2998 2999 2997 2997 2996 2991 2982 2977 2981 2989 2997 3001 3005 3014 3025 3032 3036 3039 3042 3044 3048 3052
2963 2964 2965 2968 2970 2972 2974 2977 2979 2982 2984 2986 2989 2991 2992 2992 2991 2991 2992 2992 2993 2995 2997 2999 3000 3001 3002 3003 3004 3004 3005 3006 3007 3008 3008 3008 3008 3008 3008 3007 3007 3008 3007 3007 3007 3007 3007 3007 3006 3006 3005 3003 3002 3001 3000 3001 3002 3003 3003 3002 3002 3001 3001 3001 3000 3000 3000 3000 3000 2999 2998 2997 2997 2998 3001 3006 3009 3012 3018 3025 3030 3034 3038 3041 3043 3047 3050
2962 2963 2964 2966 2968 2970 2972 2974 2976 2978 2981 2983 2985 2988 2989 2989 2988 2989 2990 2992 2994 2995 2997 2999 3000 3001 3001 3002 3003 3004 3004 3005 3007 3008 3008 3008 3008 3008 3008 3008 3007 3007 3007 3007 3007 3007 3007 3007 3006 3005 3004 3003 3002 3001 3001 3002 3003 3003 3003 3001 3000 3000 3001 3001 3001 3001 3001 3001 3001 3002 3003 3004 3005 3007 3009 3012 3014 3017 3021 3025 3028 3032 3036 3039 3041 3044 3047
2961 2962 2964 2965 2967 2969 2971 2973 2975 2977 2979 2981 2983 2985 2987 2987 2987 2988 2990 2992 2994 2996 2998 2999 3000 3000 3001 3001 3002 3003 3003 3005 3006 3007 3008 3009 3009 3009 3008 3008 3008 3007 3007 3007 3006 3006 3007 3007 3007 3006 3005 3005 3004 3003 3002 3003 3003 3003 3002 3001 3001 3001 3002 3003 3003 3002 3003 3003 3003 3003 3004 3007 3008 3010 3013 3015 3017 3019 3021 3024 3027 3030 3034 3037 3040 3042 3045
2959 2961 2962 2965 2967 2968 2970 2972 2974 2976 2978 2979 2981 2983 2985 2986 2988 2990 2992 2994 2996 2997 2998 2999 3000 3000 3000 3000 3001 3002 3003 3004 3005 3006 3007 3008 3008 3008 3008 3008 3008 3007 3007 3007 3006 3006 3006 3006 3006 3006 3006 3005 3005 3004 3003 3003 3003 3003 3003 3003 3003 3003 3004 3005 3005 3005 3005 3006 3006 3006 3007 3008 3010 3012 3014 3016 3017 3020 3022 3024 3027 3030 3033 3036 3038 3041 3043
2960 2961 2963 2965 2967 2968 2970 2972 2974 2976 2977 2979 2980 2982 2984 2987 2989 2991 2993 2995 2997 2998 2999 2999 3000 2999 2999 2999 3000 3001 3002 3003 3004 3005 3006 3007 3007 3007 3007 3007 3007 3007 3007 3007 3007 3006 3006 3006 3006 3007 3006 3006 3006 3005 3004 3003 3003 3004 3004 3004 3005 3006 3006 3006 3007 3008 3008 3008 3008 3009 3009 3010 3011 3013 3014 3016 3018 3020 3023 3025 3028 3030 3032 3035 3037 3039 3041
2962 2963 2964 2966 2967 2968 2970 2972 2973 2975 2977 2978 2980 2983 2985 2987 2990 2992 2994 2996 2997 2998 2998 2998 2998 2998 2998 2998 2998 2999 3000 3001 3002 3003 3004 3005 3005 3005 3005 3005 3005 3006 3006 3007 3007 3006 3006 3006 3006 3007 3007 3006 3006 3006 3005 3005 3005 3005 3005 3005 3005 3007 3007 3008 3008 3009 3010 3010 3010 3010 3010 3011 3012 3014 3015 3017 3019 3021 3024 3026 3028 3031 3033 3034 3036 3038 3040
2963 2964 2965 2966 2968 2969 2970 2972 2973 2975 2977 2979 2981 2983 2985 2987 2990 2992 2994 2995 2996 2997 2997 2996 2996 2996 2997 2997 2997 2998 2999 3000 3001 3002 3003 3003 3003 3003 3004 3004 3004 3004 3005 3005 3005 3006 3006 3005 3006 3006 3006 3006 3006 3006 3006 3006 3006 3006 3006 3006 3005 3006 3006 3007 3008 3009 3010 3011 3011 3012 3012 3012 3013 3014 3016 3018 3020 3022 3025 3027 3028 3030 3031 3033 3035 3037 3038
2965 2966 2967 2968 2969 2970 2971 2973 2975 2976 2978 2979 2981 2983 2985 2988 2990 2992 2993 2994 2995 2995 2995 2995 2995 2995 2996 2996 2997 2998 2999 3000 3001 3001 3002 3002 3002 3002 3002 3002 3002 3003 3003 3004 3004 3004 3004 3004 3004 3005 3005 3005 3005 3005 3006 3006 3006 3007 3007 3007 3005 3005 3006 3007 3008 3008 3010 3011 3012 3013 3014 3014 3014 3015 3017 3019 3020 3022 3024 3025 3026 3027 3029 3030 3032 3034 3036
2968 2969 2970 2970 2971 2972 2974 2975 2977 2978 2979 2980 2981 2983 2986 2988 2990 2991 2992 2993 2993 2994 2994 2994 2995 2996 2996 2997 2998 2998 2999 3000 3001 3001 3002 3002 3001 3001 3001 3001 3001 3001 3001 3002 3002 3003 3003 3003 3002 3003 3003 3003 3003 3004 3004 3005 3005 3006 3007 3007 3006 3006 3007 3008 3009 3009 3010 3011 3012 3013 3014 3014 3014 3015 3016 3017 3019 3020 3021 3022 3023 3024 3026 3028 3030 3032 3034
2971 2972 2973 2974 2975 2975 2976 2977 2979 2980 2981 2983 2984 2985 2987 2990 2991 2992 2992 2992 2992 2993 2994 2995 2996 2997 2997 2998 2998 2999 3000 3000 3001 3002 3002 3001 3001 3000 3000 3000 3000 3000 3000 3000 3001 3001 3001 3001 3001 3001 3001 3001 3001 3001 3002 3003 3003 3004 3005 3006 3006 3006 3007 3008 3009 3010 3011 3011 3011 3011 3012 3012 3012 3013 3014 3015 3016 3017 3018 3019 3021 3022 3024 3026 3028 3030 3032
2974 2975 2976 2976 2977 2977 2978 2979 2981 2983 2985 2986 2987 2988 2990 2991 2992 2992 2993 2993 2993 2995 2996 2997 2998 2998 2998 2999 2999 3000 3001 3002 3002 3003 3002 3002 3001 3001 3000 3000 3000 3000 3000 3000 3000 3000 3000 3000 3000 3000 3000 3000 3000 3000 3000 3001 3001 3002 3002 3003 3004 3004 3005 3006 3007 3008 3009 3009 3009 3009 3010 3011 3012 3012 3012 3013 3014 3015 3016 3017 3019 3021 3023 3025 3027 3029 3031
2978 2978 2978 2978 2979 2979 2981 2983 2985 2987 2988 2990 2991 2992 2993 2994 2994 2995 2995 2996 2996 2997 2998 2999 3000 3000 3000 3000 3000 3001 3002 3003 3004 3004 3004 3003 3002 3002 3001 3000 3000 3000 3000 2999 3000 3000 3000 3000 3000 2999 2999 2999 2999 2999 3000 3000 3000 3000 3000 3001 3001 3002 3002 3003 3004 3005 3005 3006 3006 3007 3008 3009 3010 3010 3011 3012 3014 3015 3015 3016 3017 3019 3021 3023 3025 3026 3028
2982 2982 2982 2982 2983 2984 2986 2988 2989 2991 2992 2993 2994 2994 2995 2996 2997 2997 2998 2998 2999 3000 3000 3001 3002 3002 3002 3002 3003 3004 3005 3006 3006 3006 3006 3005 3004 3003 3002 3001 3001 3001 3001 3000 3000 3001 3001 3001 3000 3000 2999 2998 2998 2998 2998 2998 2999 2999 2999 3000 3000 3000 3000 3001 3002 3002 3003 3003 3004 3005 3005 3006 3007 3008 3009 3011 3013 3014 3015 3016 3016 3018 3020 3022 3023 3024 3025
2987 2988 2988 2988 2990 2991 2992 2993 2994 2995 2996 2997 2997 2998 2999 2999 3000 3000 3001 3001 3002 3002 3002 3003 3003 3004 3004 3005 3006 3007 3007 3008 3008 3007 3006 3005 3005 3004 3003 3003 3002 3002 3002 3002 3001 3001 3001 3001 3001 3000 2999 2999 2998 2998 2997 2997 2997 2998 2998 2998 2998 2998 2998 2999 3001 3002 3002 3002 3003 3003 3003 3004 3005 3006 3007 3009 3011 3012 3014 3015 3016 3016 3018 3020 3022 3023 3025
2993 2994 2994 2995 2996 2997 2998 2998 2999 3000 3000 3000 3001 3001 3002 3002 3003 3003 3003 3003 3004 3004 3004 3004 3005 3006 3006 3007 3008 3008 3008 3009 3008 3007 3006 3006 3005 3004 3004 3004 3004 3003 3003 3002 3002 3002 3001 3001 3001 3000 2999 2999 2998 2998 2998 2997 2997 2996 2996 2996 2996 2997 2997 2998 2999 3000 3001 3001 3001 3001 3002 3002 3003 3003 3005 3007 3009 3010 3011 3012 3014 3015 3016 3018 3020 3021 3023
2999 2999 3000 3001 3002 3002 3003 3003 3003 3003 3003 3004 3004 3004 3004 3004 3005 3005 3005 3006 3006 3006 3006 3006 3007 3007 3008 3008 3008 3009 3009 3009 3008 3008 3007 3006 3005 3004 3004 3004 3004 3003 3003 3002 3002 3002 3002 3001 3001 3000 2999 2999 2999 2998 2998 2997 2996 2996 2996 2996 2996 2995 2995 2996 2997 2998 2999 2999 3000 3001 3002 3002 3002 3003 3004 3006 3007 3009 3010 3010 3011 3013 3015 3016 3018 3019 3020
3003 3004 3005 3005 3006 3006 3006 3006 3006 3006 3006 3006 3005 3005 3005 3006 3007 3007 3007 3007 3007 3007 3007 3008 3008 3008 3008 3008 3009 3009 3009 3008 3008 3007 3006 3005 3004 3004 3004 3004 3004 3003 3003 3002 3002 3002 3002 3001 3001 3000 3000 2999 2999 2999 2998 2998 2997 2997 2996 2996 2996 2996 2996 2996 2996 2996 2997 2998 2998 3000 3000 3001 3001 3002 3003 3004 3006 3007 3008 3009 3009 3011 3013 3014 3015 3017 3018
3006 3007 3008 3008 3008 3009 3009 3009 3008 3008 3008 3007 3007 3007 3007 3008 3008 3009 3009 3009 3009 3009 3009 3009 3009 3009 3009 3009 3009 3009 3008 3007 3007 3006 3005 3004 3004 3004 3004 3003 3003 3003 3002 3002 3002 3002 3002 3001 3001 3000 3000 2999 2999 2998 2998 2998 2997 2997 2997 2996 2996 2996 2996 2996 2996 2996 2996 2997 2998 2998 2999 2999 3000 3001 3002 3003 3004 3005 3006 3007 3008 3009 3010 3011 3013 3014 3015
3010 3010 3010 3010 3010 3011 3010 3010 3010 3009 3009 3008 3008 3008 3009 3009 3009 3009 3009 3010 3010 3010 3010 3010 3009 3009 3009 3009 3009 3008 3008 3007 3006 3006 3005 3004 3004 3003 3003 3003 3003 3002 3002 3002 3002 3001 3001 3001 3000 3000 2999 2999 2998 2998 2998 2997 2997 2997 2996 2996 2996 2996 2996 2996 2996 2996 2996 2997 2997 2997 2998 2999 2999 2999 3000 3001 3002 3003 3004 3005 3006 3007 3008 3009 3010 3011 3012
3012 3012 3012 3012 3012 3011 3011 3011 3011 3010 3009 3010 3010 3010 3010 3010 3010 3010 3010 3010 3010 3009 3009 3009 3009 3008 3008 3008 3007 3007 3007 3006 3006 3005 3004 3004 3003 3003 3003 3002 3002 3002 3001 3001 3001 3000 3000 3000 2999 2999 2999 2998 2998 2997 2997 2997 2997 2996 2996 2996 2996 2996 2995 2996 2996 2996 2996 2996 2996 2997 2997 2998 2998 2999 2999 3000 3000 3001 3002 3003 3004 3005 3006 3007 3008 3009 3010
3014 3014 3013 3013 3013 3012 3012 3011 3011 3010 3010 3011 3011 3011 3011 3011 3010 3010 3010 3009 3009 3009 3008 3008 3008 3007 3007 3006 3006 3006 3005 3005 3004 3004 3003 3003 3003 3002 3002 3001 3001 3000 3000 2999 2999 2999 2998 2998 2998 2997 2997 2997 2996 2996 2996 2996 2996 2996 2996 2996 2995 2995 2995 2995 2995 2995 2995 2995 2995 2996 2996 2996 2997 2997 2998 2998 2999 3000 3000 3001 3002 3003 3004 3005 3006 3006 3007
3015 3015 3014 3014 3013 3012 3012 3011 3011 3011 3011 3011 3011 3011 3011 3010 3010 3009 3009 3008 3008 3008 3008 3007 3007 3006 3006 3005 3005 3004 3004 3003 3003 3002 3002 3002 3001 3000 3000 2999 2998 2998 2997 2996 2996 2996 2995 2995 2995 2995 2995 2994 2994 2994 2994 2994 2994 2994 2994 2994 2994 2994 2994 2994 2994 2994 2994 2994 2994 2994 2995 2995 2996 2996 2997 2997 2997 2998 2999 2999 3000 3001 3001 3002 3003 3003 3003
3016 3015 3015 3014 3013 3012 3011 3011 3010 3011 3011 3011 3011 3011 3010 3010 3009 3008 3007 3007 3007 3007 3006 3006 3006 3005 3005 3004 3004 3003 3003 3002 3001 3001 3000 3000 2999 2999 2998 2997 2996 2995 2995 2994 2993 2993 2992 2992 2992 2992 2992 2992 2992 2992 2991 2991 2991 2991 2992 2992 2992 2992 2992 2992 2992 2992 2992 2992 2992 2992 2993 2993 2994 2995 2995 2996 2996 2996 2997 2997 2998 2998 2999 2999 2999 3000 3000